Charleroi, Belgium

6:00 PM CEST on March 30, 2017 (GMT +0200)
Brussels South

Weather History for EBCI - February, 2013

Change the Weather History Date:

Sunday, February 3, 2013

  Actual Average Record
Temperature  
Mean Temperature 36 °F -  
Max Temperature 41 °F 44 °F 59 °F (2004)
Min Temperature 32 °F 32 °F 10 °F (2012)
Degree Days  
Heating Degree Days 30    
Moisture  
Dew Point 33 °F    
Average Humidity 88    
Maximum Humidity 100    
Minimum Humidity 58    
Precipitation  
Precipitation 0.04 in - - ()
Sea Level Pressure  
Sea Level Pressure 30.08 in    
Wind  
Wind Speed 10 mph ()    
Max Wind Speed 21 mph    
Max Gust Speed -    
Visibility 5.5 miles    
Events Rain , Snow    
Averages and records for this station are not official NWS values.
T = Trace of Precipitation, MM = Missing Value Source: Averaged Metar Reports

Daily Weather History Graph

Daily Weather History Graph

Search for Another Location

Airport or City:

Trip Planner

Search our weather history database for the weather conditions in past years. The results will help you decide how hot, cold, wet, or windy it might be!

Date:

Astronomy

Feb. 03, 2013 Rise Set
Actual Time 8:14 AM CET 5:38 PM CET
Civil Twilight 7:39 AM CET 6:13 PM CET
Nautical Twilight 7:00 AM CET 6:52 PM CET
Astronomical Twilight 6:21 AM CET 7:30 PM CET
Moon 1:23 AM CET (2/3) 11:02 AM CET (2/3)
Length of Visible Light 10h 34m
Length of Day
9h 24m
Waning Gibbous, 51% of the Moon is Illuminated
Feb 3
Waning Gibbous
Feb 3
Last Quarter
Feb 10
New
Feb 17
First Quarter
Feb 25
Full

Hourly Weather History & Observations

Time (CET) Temp. Windchill Dew Point Humidity Pressure Visibility Wind Dir Wind Speed Gust Speed Precip Events Conditions
12:20 AM 33.8 °F 27.7 °F 30.2 °F 87% 30.06 in 6.2 mi WNW 6.9 mph - N/A   Mostly Cloudy
12:50 AM 33.8 °F 27.7 °F 32.0 °F 93% 30.09 in 6.2 mi NW 6.9 mph - N/A   Mostly Cloudy
1:00 AM 34 °F - 32 °F 87% 30.13 in 7 mi NW 6.7 mph - -   Partly Cloudy
1:20 AM 33.8 °F 28.6 °F 32.0 °F 93% 30.09 in 6.2 mi WNW 5.8 mph - N/A Snow Light Snow Showers
1:50 AM 33.8 °F 28.6 °F 32.0 °F 93% 30.09 in 6.2 mi WNW 5.8 mph - N/A   Mostly Cloudy
2:20 AM 33.8 °F 28.6 °F 32.0 °F 93% 30.09 in 6.2 mi WNW 5.8 mph - N/A   Mostly Cloudy
2:50 AM 35.6 °F 29.9 °F 33.8 °F 93% 30.12 in 6.2 mi WNW 6.9 mph - N/A   Mostly Cloudy
3:20 AM 35.6 °F 28.6 °F 33.8 °F 93% 30.12 in 6.2 mi WNW 9.2 mph - N/A   Mostly Cloudy
3:50 AM 35.6 °F 29.2 °F 33.8 °F 93% 30.12 in 6.2 mi WNW 8.1 mph - N/A   Mostly Cloudy
4:00 AM 35 °F - 34 °F 93% 30.17 in 7 mi WNW 8.9 mph - - Snow Light Snow Showers
4:20 AM 35.6 °F 30.7 °F 33.8 °F 93% 30.12 in 6.2 mi WNW 5.8 mph - N/A   Mostly Cloudy
4:50 AM 35.6 °F 30.7 °F 33.8 °F 93% 30.15 in 5.0 mi WNW 5.8 mph - N/A   Mostly Cloudy
5:20 AM 35.6 °F 30.7 °F 33.8 °F 93% 30.15 in 3.1 mi West 5.8 mph - N/A Rain , Snow Light Rain Showers
5:50 AM 35.6 °F 30.7 °F 35.6 °F 100% 30.15 in 3.1 mi WNW 5.8 mph - N/A Rain , Snow Light Rain Showers
6:20 AM 35.6 °F 29.9 °F 33.8 °F 93% 30.15 in 3.7 mi West 6.9 mph - N/A   Mostly Cloudy
6:50 AM 35.6 °F 30.7 °F 33.8 °F 93% 30.15 in 4.3 mi WNW 5.8 mph - N/A   Mostly Cloudy
7:00 AM 36 °F - 34 °F 90% 30.20 in 4 mi WNW 6.7 mph - - Snow Light Snow Showers
7:20 AM 35.6 °F 29.2 °F 33.8 °F 93% 30.15 in 4.3 mi West 8.1 mph - N/A   Mostly Cloudy
7:50 AM 35.6 °F 30.7 °F 33.8 °F 93% 30.12 in 3.1 mi West 5.8 mph - N/A   Mostly Cloudy
8:20 AM 35.6 °F 30.7 °F 33.8 °F 93% 30.15 in 3.1 mi West 5.8 mph - N/A   Mostly Cloudy
8:50 AM 35.6 °F 28.0 °F 33.8 °F 93% 30.12 in 3.1 mi WSW 10.4 mph - N/A   Mostly Cloudy
9:20 AM 35.6 °F 28.6 °F 33.8 °F 93% 30.15 in 3.1 mi West 9.2 mph - N/A   Mostly Cloudy
9:50 AM 35.6 °F 28.6 °F 33.8 °F 93% 30.15 in 3.1 mi WSW 9.2 mph - N/A   Mostly Cloudy
10:20 AM 35.6 °F 27.1 °F 32.0 °F 87% 30.15 in 4.3 mi West 12.7 mph - N/A   Mostly Cloudy
10:50 AM 35.6 °F 26.6 °F 32.0 °F 87% 30.15 in 6.2 mi West 13.8 mph - N/A   Mostly Cloudy
11:20 AM 35.6 °F 26.6 °F 30.2 °F 81% 30.12 in 6.2 mi WSW 13.8 mph - N/A   Partly Cloudy
11:50 AM 37.4 °F 28.2 °F 28.4 °F 70% 30.12 in - WSW 16.1 mph - N/A   Clear
12:20 PM 37.4 °F 27.8 °F 28.4 °F 70% 30.12 in - WSW 17.3 mph - N/A   Clear
12:50 PM 37.4 °F 27.8 °F 28.4 °F 70% 30.12 in - WSW 17.3 mph - N/A   Clear
1:00 PM 38 °F - 29 °F 58% 30.15 in 19 mi WSW 17.9 mph - -   Mostly Cloudy
1:20 PM 37.4 °F 27.8 °F 28.4 °F 70% 30.09 in - SW 17.3 mph - N/A   Clear
1:50 PM 37.4 °F 27.5 °F 30.2 °F 75% 30.09 in 6.2 mi SW 18.4 mph - N/A   Mostly Cloudy
2:20 PM 37.4 °F 27.8 °F 30.2 °F 75% 30.06 in 6.2 mi SW 17.3 mph - N/A   Mostly Cloudy
2:50 PM 37.4 °F 27.8 °F 30.2 °F 75% 30.04 in 6.2 mi SW 17.3 mph - N/A   Mostly Cloudy
3:20 PM 37.4 °F 27.5 °F 30.2 °F 75% 30.04 in 6.2 mi SW 18.4 mph - N/A   Mostly Cloudy
3:50 PM 37.4 °F 26.9 °F 30.2 °F 75% 30.04 in 6.2 mi SW 20.7 mph - N/A   Mostly Cloudy
4:00 PM 38 °F - 31 °F 68% 30.06 in 19 mi SW 20.1 mph - -   Mostly Cloudy
4:20 PM 37.4 °F 27.2 °F 30.2 °F 75% 30.04 in 6.2 mi SW 19.6 mph - N/A   Mostly Cloudy
4:50 PM 37.4 °F 27.2 °F 33.8 °F 87% 30.01 in 2.2 mi SW 19.6 mph - N/A Rain Light Rain
5:20 PM 35.6 °F 24.5 °F 33.8 °F 93% 30.01 in - SW 20.7 mph - N/A Rain Light Rain
5:50 PM 35.6 °F 24.8 °F 33.8 °F 93% 30.01 in - SW 19.6 mph - N/A Rain Light Rain
6:20 PM 37.4 °F 27.8 °F 33.8 °F 87% 30.01 in - SW 17.3 mph - N/A Rain Light Rain
6:50 PM 37.4 °F 27.5 °F 35.6 °F 93% 30.01 in - SW 18.4 mph - N/A Rain Light Rain
7:00 PM 37 °F - 35 °F 92% 30.04 in 2 mi SW 17.9 mph - - Rain Light Rain
7:20 PM 37.4 °F 27.5 °F 35.6 °F 93% 30.01 in 2.2 mi SW 18.4 mph - N/A Rain Light Rain
7:50 PM 37.4 °F 27.8 °F 35.6 °F 93% 30.01 in - SW 17.3 mph - N/A Rain Light Rain
8:20 PM 37.4 °F 28.2 °F 35.6 °F 93% 29.98 in 4.3 mi SW 16.1 mph - N/A Rain Rain
8:50 PM 39.2 °F 30.8 °F 37.4 °F 93% 29.98 in 5.0 mi SW 15.0 mph - N/A Rain Light Rain
9:20 PM 39.2 °F 31.2 °F 37.4 °F 93% 29.98 in 5.0 mi SW 13.8 mph - N/A Rain Light Rain
9:50 PM 39.2 °F 30.5 °F 37.4 °F 93% 29.98 in 5.0 mi SW 16.1 mph - N/A   Mostly Cloudy
10:00 PM 39 °F - 37 °F 92% 30.00 in 5 mi SW 15.7 mph - - Rain Light Rain
10:20 PM 39.2 °F 31.6 °F 37.4 °F 93% 29.98 in 5.0 mi SW 12.7 mph - N/A   Mostly Cloudy
10:50 PM 39.2 °F 30.8 °F 39.2 °F 100% 29.98 in - SW 15.0 mph - N/A   Light Drizzle
11:20 PM 39.2 °F 30.8 °F 39.2 °F 100% 29.95 in - SW 15.0 mph - N/A   Light Drizzle
11:50 PM 41.0 °F 33.1 °F 39.2 °F 93% 29.95 in 2.5 mi SW 15.0 mph - N/A   Light Drizzle